Location: Unspecified
(40.7945°N, 111.1337°W)
Time: 19:10:11
(UTC-06:00)

Cosmos 1674 - Visible Passes

Search period start: 22 March 2019 00:00
Search period end: 01 April 2019 00:00
Orbit: 495 x 520 km, 82.5° (Epoch: 22 March)

Date Brightness Start Highest point End Pass type
(mag) Time Alt. Az. Time Alt. Az. Time Alt. Az.
22 Mar 4.5 20:33:58 10° NE 20:36:04 14° ENE 20:36:07 14° ENE visible
22 Mar 4.4 22:08:19 10° NNW 22:11:01 31° WNW 22:11:01 31° WNW visible
23 Mar 4.7 20:17:23 10° NE 20:18:31 11° ENE 20:19:30 10° E visible
23 Mar 3.6 21:50:43 10° NNW 21:54:20 46° W 21:54:24 46° W visible
24 Mar 3.0 21:33:09 10° NNW 21:36:54 62° W 21:37:53 43° SSW visible
25 Mar 2.6 21:15:40 10° N 21:19:27 85° W 21:21:27 27° S visible
26 Mar 2.5 20:58:12 10° N 21:01:59 72° E 21:05:08 14° SSE visible
27 Mar 2.8 20:40:48 10° N 20:44:31 53° E 20:48:13 10° SSE visible
28 Mar 3.1 20:23:26 10° N 20:27:01 39° ENE 20:30:36 10° SSE visible
28 Mar 5.8 22:00:34 10° WNW 22:02:09 12° W 22:03:45 10° WSW visible
29 Mar 3.5 20:06:08 10° NNE 20:09:31 30° ENE 20:12:54 10° SE visible
29 Mar 5.7 21:42:25 10° NW 21:44:48 16° W 21:47:10 10° SW visible
30 Mar 5.3 21:24:31 10° NW 21:27:24 21° W 21:30:17 10° SW visible
31 Mar 4.9 21:06:46 10° NNW 21:10:01 27° W 21:13:14 10° SSW visible
